Location: Icklesham
(50.9000°N, 0.6667°E)
Time: 06:49:36
(UTC+00:00)

Daily predictions for brighter satellites

Satellite Brightness Start Highest point End
(mag) Time Altitude Azimuth Time Altitude Azimuth Time Altitude Azimuth
Cosmos 1634 Rocket 4.3 16:53:09 10° N 16:59:09 46° ENE 17:05:08 10° SE
SL-08 R/B 4.5 16:54:48 10° N 16:59:11 42° WNW 17:03:33 10° SW
Okean-O 4.1 17:02:05 10° E 17:04:55 17° ENE 17:07:46 10° NNE
AQUARIUS 4.2 17:01:30 10° SSE 17:05:57 65° ENE 17:10:26 10° N
COSMO-SKYMED 1 4.0 17:03:45 10° NE 17:06:49 19° E 17:09:53 10° SE
Landsat 5 3.4 17:05:16 10° NNE 17:09:17 62° ESE 17:13:09 10° S
Cosmos 1536 Rocket 3.7 17:05:28 10° S 17:09:43 52° E 17:14:01 10° NNE
Cosmos 2227 Rocket 2.8 17:04:13 10° SW 17:09:48 59° NW 17:15:27 10° NNE
SeaSat 1 3.6 17:06:16 10° NNE 17:10:50 39° NW 17:15:23 10° WSW
Cosmos 1674 2.7 17:08:04 10° S 17:11:52 69° E 17:15:43 10° NNE
RESURS DK-1 3.3 17:08:44 10° S 17:12:22 30° ESE 17:16:02 10° NE
Okean O Rocket 1.6 17:08:33 10° SSE 17:12:58 67° ENE 17:17:24 10° N
ERS-2 4.1 17:12:09 10° ENE 17:13:25 11° E 17:14:40 10° ESE
CZ-4C R/B 2.6 17:12:21 10° NNE 17:15:31 76° ESE 17:18:40 10° S
CZ-4B R/B 2.9 17:13:10 10° NE 17:15:44 20° E 17:18:16 10° SE
SL-24 R/B 4.1 17:17:09 10° SSE 17:21:28 85° ENE 17:26:04 10° NNW
CZ-4C R/B 2.2 17:17:17 10° SSW 17:22:18 74° SE 17:28:25 10° NE
CZ-4B R/B 3.4 17:19:48 10° SSE 17:25:20 85° WSW 17:31:01 10° NNW
USA 234 3.6 17:19:16 10° E 17:25:36 54° N 17:31:57 10° WNW
Tsikada Rocket 4.0 17:19:31 10° S 17:25:51 78° E 17:32:09 10° NNE
Cosmos 1400 Rocket 3.3 17:21:52 10° NNW 17:26:00 68° W 17:30:02 10° S
FengYun 1-2 T 4.2 17:21:07 10° SSE 17:26:40 83° ENE 17:32:18 10° NNW
CZ-2D R/B 3.8 17:26:07 10° SE 17:29:41 36° ENE 17:33:14 10° N
Cosmos 1354 Rocket 4.4 17:25:44 10° S 17:30:44 43° ESE 17:35:47 10° NE
Cosmos 1603 3.7 17:25:10 10° NNW 17:30:54 79° ENE 17:36:39 10° SSE
Meteor 2-5 Rocket 3.9 17:25:46 10° SSE 17:31:05 48° E 17:36:24 10° NNE
SL-14 R/B 3.6 17:27:54 10° SSE 17:31:33 42° E 17:35:16 10° NNE
Cosmos 1025 Rocket 3.5 17:28:09 10° SSW 17:32:27 64° WNW 17:36:48 10° N
IRS-1C Rocket 4.4 17:29:25 10° SE 17:34:23 45° ENE 17:39:24 10° N
Cosmos 2297 Rocket 3.5 17:29:42 10° WSW 17:34:54 36° NW 17:40:07 10° NNE
Cosmos 2142 Rocket 4.5 17:29:40 10° N 17:35:49 59° ENE 17:41:51 10° SSE
ATLAS 3B R/B 3.1 17:30:56 10° NW 17:37:50 71° SW 17:45:00 10° SSE
COSMOS 2455 4.2 17:33:47 10° SSE 17:37:56 20° ESE 17:40:26 15° ENE
KORONAS-FOTON 4.3 17:34:38 10° SSW 17:38:30 62° WNW 17:42:25 10° N
Cosmos 1486 Rocket 4.0 17:36:40 10° SSW 17:41:55 85° WNW 17:47:11 10° NNE
Cosmos 1606 Rocket 3.6 17:38:24 10° N 17:42:42 54° ENE 17:47:00 10° SSE
Cosmos 2082 4.3 17:38:50 10° SW 17:44:28 58° NW 17:50:07 10° NNE
Cosmos 968 Rocket 3.6 17:40:03 10° SSW 17:45:09 77° WNW 17:50:19 10° NNE
YAOGAN 1 3.2 17:41:25 10° SE 17:45:16 32° ENE 17:49:07 10° N
Cosmos 1892 Rocket 4.4 17:41:50 10° SSE 17:45:30 28° E 17:48:30 14° NE
H-2A R/B 2.2 17:41:01 10° NNE 17:45:33 84° WNW 17:49:58 10° SSW
H-2A R/B 4.1 17:45:44 10° SSW 17:49:25 36° W 17:53:16 10° NNW
Cosmos 1626 2.0 17:46:33 10° S 17:50:15 90° WNW 17:53:59 10° N
CZ-2C R/B 3.2 17:45:38 10° SSE 17:50:46 60° ENE 17:56:15 10° N
CSL-04 Rocket 4.4 17:46:26 10° ESE 17:51:05 31° ENE 17:55:48 10° N
Cosmos 1939 Rocket 2.9 17:47:08 10° SSE 17:51:17 89° ENE 17:55:25 10° NNW
CZ-4 R/B 4.4 17:48:45 10° SSE 17:52:48 58° ENE 17:56:53 10° N
CSL-04 DEB 4.4 17:50:11 10° NNE 17:54:28 70° ESE 17:58:37 10° S
SKYMED 2 3.7 17:50:58 10° NNE 17:55:13 50° E 17:59:26 10° S
MOS 1 Rocket 3.5 17:52:41 10° NNE 17:56:49 39° E 18:00:50 10° SSE
CZ-4 R/B 1.7 17:53:26 10° SE 17:57:22 45° ENE 18:01:16 10° N
ATLAS 5 CENTAUR R/B 1.7 17:54:52 10° SSW 17:58:45 49° SE 18:01:05 24° ENE
CREW DRAGON DEMO-1 DEB 2.6 17:59:27 10° W 18:02:21 74° N 18:03:09 43° ENE
Meteor 2-10 Rocket 3.7 17:57:39 10° N 18:03:12 53° ENE 18:08:29 10° SSE
NOSS 3-1 (C) 4.4 17:58:16 10° NW 18:04:40 40° NNE 18:09:09 22° E
Cosmos 2058 Rocket 3.2 18:02:58 10° N 18:07:21 50° ENE 18:11:43 10° SSE
Cosmos 2228 3.1 18:03:24 10° NNW 18:07:40 79° W 18:11:56 10° S
Feng Yun 1-1 Rocket 4.3 18:02:37 10° SSE 18:08:02 81° WSW 18:13:36 10° NNW
Cosmos 1503 Rocket 4.1 18:03:53 10° SSW 18:09:16 86° WNW 18:14:35 11° NNE
Cosmos 1315 Rocket 3.2 18:05:22 10° NNW 18:09:18 65° W 18:13:14 10° S
SJ 16-02 3.5 18:08:18 10° SE 18:08:46 12° SE 18:08:46 12° SE
H-2A R/B 2.0 18:07:09 10° SE 18:11:59 54° ENE 18:16:57 10° N
Cosmos 2263 Rocket 2.1 18:06:40 10° SSW 18:12:22 83° ESE 18:17:05 16° NNE
USA-17 4.2 18:09:07 10° SW 18:12:42 89° SE 18:13:39 42° NE
SAR-Lupe-4 4.1 18:12:53 36° E 18:12:53 36° E 18:16:11 10° SSE
Okean 1-7 Rocket 4.1 18:10:43 10° SSE 18:14:53 37° E 18:16:13 30° NE
Cosmos 1455 3.8 18:11:48 10° N 18:13:18 20° NNE 18:13:18 20° NNE
Meteor 1-24 Rocket 3.5 18:12:03 10° S 18:17:26 86° E 18:22:46 10° NNE
Cosmos 1300 3.5 18:13:54 10° NNW 18:17:38 52° W 18:21:20 10° S
OPS 8737 4.2 18:15:43 10° NW 18:18:45 80° NE 18:20:11 34° SE
USA 229 4.5 18:13:27 10° NW 18:19:58 38° NNE 18:23:08 27° ENE
USA 229 DEB 4.5 18:13:27 10° NW 18:19:59 38° NNE 18:23:09 27° ENE
Cosmos 1689 Rocket 4.3 18:22:28 15° SSE 18:22:28 15° SSE 18:23:05 10° S
NOSS 7 (H) 4.2 18:17:31 10° SW 18:20:43 71° NW 18:21:16 52° NNE
SAR-Lupe-1 4.3 18:24:36 46° ESE 18:24:36 46° ESE 18:27:49 10° S
NOSS 3-4 (A) 4.1 18:19:17 10° WSW 18:25:04 48° NNW 18:29:31 19° NE
NOSS 3-4 (C) 4.1 18:19:23 10° WSW 18:25:10 48° NNW 18:29:37 19° NE
GENESIS II 4.2 18:21:46 10° SSW 18:25:45 68° SE 18:26:42 48° ENE
Cosmos 1943 4.2 18:21:22 10° NW 18:26:49 48° WSW 18:32:12 10° S
Cosmos 1680 Rocket 4.1 18:24:37 10° NNW 18:29:26 34° NE 18:29:33 34° ENE
Aureole 3 4.4 18:26:13 10° N 18:28:32 28° NNE 18:28:32 28° NNE
Cosmos 1726 Rocket 3.9 18:26:36 10° NNW 18:30:55 65° W 18:35:14 10° S
USA 267 4.1 18:29:51 27° ESE 18:31:29 31° SE 18:37:07 10° S
Helios 1A Rocket 2.8 18:27:29 10° SSE 18:31:36 72° ENE 18:35:45 10° N
SJ-11-01 4.1 18:29:22 10° SSE 18:34:03 76° ENE 18:38:46 10° N
ARGOS 3.1 18:29:24 10° SSE 18:34:41 63° ENE 18:40:00 10° N
Cosmos 2279 Rocket 4.4 18:28:40 10° NNW 18:34:52 64° W 18:41:02 10° S
NOSS 3-1 (A) 4.5 18:28:58 10° NW 18:35:24 40° NNE 18:38:03 31° ENE
CSL-04 Debris 4.1 18:30:41 10° SSE 18:36:01 66° ENE 18:41:23 10° N
Lacrosse 5 1.8 18:31:07 10° WNW 18:36:12 72° NNE 18:37:40 45° E
Meteor 1-21 Rocket 4.5 18:32:52 10° SSE 18:38:01 41° E 18:38:12 41° E
Cosmos 2082 Rocket 3.9 18:34:33 10° N 18:37:45 17° NNE 18:37:45 17° NNE
Okean-O 2.7 18:36:27 10° S 18:40:52 76° WSW 18:45:20 10° NNW
CZ-2C R/B 3.7 18:43:09 29° SE 18:43:09 29° SE 18:46:24 10° SSE
USA 281 4.1 18:42:04 28° NE 18:42:16 28° NE 18:47:36 10° NNW
ATLAS 2AS CENTAUR R/B 3.5 18:35:01 10° WSW 18:42:48 55° NW 18:48:01 22° NE
Cosmos 1833 Rocket 4.0 18:38:46 10° NNW 18:42:29 23° NNE 18:42:29 23° NNE
COSMO-SKYMED 1 3.1 18:39:04 10° N 18:43:21 57° WNW 18:47:36 10° SSW
ERS-2 2.3 18:46:37 50° N 18:47:24 70° WNW 18:51:01 10° SSW
CZ-4B R/B 3.1 18:45:36 15° N 18:48:02 33° WNW 18:51:07 10° SW
Cosmos 158 Rocket 3.9 18:44:58 10° NNW 18:50:14 64° ENE 18:51:25 50° ESE
RESURS DK-1 3.7 18:46:29 10° WSW 18:50:20 37° NW 18:52:06 25° N
BREEZE-M DEB (TANK) 4.1 18:50:44 10° W 18:51:44 24° W 18:51:44 24° W
Cosmos 2227 Rocket 4.4 18:51:20 10° WNW 18:55:07 18° NNW 18:58:55 10° N
PSLV R/B 4.3 19:02:51 41° N 19:04:07 63° WNW 19:08:17 10° SSW
Cosmos 2112 Rocket 4.5 19:00:54 10° NNW 19:04:56 45° NNE 19:04:56 45° NNE
Meteor 2-1 Rocket 4.2 19:01:12 10° NNW 19:06:50 78° W 19:12:21 10° S
Cosmos 1844 Rocket 3.0 19:02:37 10° S 19:07:13 49° SSE 19:07:13 49° SSE
USA 234 3.1 19:06:27 51° ESE 19:08:19 81° NNE 19:14:54 10° WNW
Cosmos 489 Rocket 4.5 19:04:37 10° NNW 19:11:02 82° WSW 19:15:41 20° SSE
CZ-4C R/B 3.4 19:06:19 10° W 19:11:22 37° NNW 19:13:43 28° NNE
Cosmos 1777 Rocket 4.2 19:07:05 10° SSW 19:12:19 69° WNW 19:14:04 42° N
Iridium 4 Rocket 3.6 19:09:22 10° N 19:15:16 77° E 19:15:36 74° ESE
Meteor 2-8 Rocket 4.2 19:09:22 10° N 19:15:29 73° ENE 19:16:19 63° SE
Cosmos 1092 Rocket 3.8 19:10:19 10° S 19:16:29 71° E 19:17:18 63° NE
YAOGAN 1 4.3 19:17:26 10° SSW 19:21:21 33° W 19:25:16 10° NNW
Cosmos 2344 4.1 19:14:00 10° NW 19:22:47 70° NE 19:26:40 45° ESE
COSMOS 2455 2.7 19:17:03 10° SW 19:23:05 89° SE 19:23:38 76° NE
CSL-04 Rocket 4.4 19:25:57 10° S 19:31:10 52° W 19:36:32 10° NNW
CZ-4 R/B 3.9 19:29:25 10° SW 19:32:37 21° W 19:35:46 10° NW
ATLAS 5 CENTAUR R/B 3.2 19:39:38 10° W 19:42:38 32° NW 19:42:38 32° NW
SJ 16-02 3.8 19:44:54 10° SSW 19:45:49 16° SW 19:45:49 16° SW
COSMOS 2406 4.4 19:43:47 10° NNW 19:46:59 33° NNW 19:46:59 33° NNW
H-2A R/B 4.1 19:47:46 10° SW 19:51:46 24° W 19:55:52 10° NW
NOSS 3-1 (C) 3.9 19:49:07 10° NW 19:56:25 90° ENE 19:56:35 87° SE
Cosmos 2263 Rocket 4.0 19:52:20 10° W 19:56:59 25° NW 19:58:47 22° NNW
USA 229 4.0 20:04:34 10° NW 20:10:35 65° NW 20:10:35 65° NW
USA 229 DEB 4.0 20:04:34 10° NW 20:10:37 66° NW 20:10:37 66° NW
USA 267 3.9 20:17:12 47° SW 20:17:12 47° SW 20:21:40 10° WSW
Lacrosse 5 3.9 20:14:21 10° WNW 20:16:54 25° W 20:16:54 25° W
Cosmos 2082 Rocket 4.3 20:18:03 10° NNW 20:19:37 19° NNW 20:19:37 19° NNW
USA 281 4.3 20:28:56 38° NNW 20:28:56 38° NNW 20:32:41 10° NNW
NOSS 3-1 (A) 4.3 20:19:52 10° NW 20:25:30 60° NW 20:25:30 60° NW
ATLAS 2AS CENTAUR R/B 4.1 20:28:28 10° WNW 20:35:25 33° N 20:35:28 33° N
